Погода в Кандалакше

Погода в Кандалакше : погода сейчас, прогноз погоды и архив. Всё, что Вы хотите узнать о погоде в Кандалакше!

Хотите узнать прогноз погоды в Кандалакше? Тогда Вам сюда: Погода в Кандалакше

Поиск расширенной информации на нашем сайте:

Полезная информация: Сварочные технологии сварочное оборудование.

Другие новости

Новости СМИ2

Главная страница сайта

Новости сайта

03.07.2017

Напоминаем, что на нашем специализированном сайте Метеоцентр.Азия вы можете получить высокодетализированные автоматические прогнозы погоды по пунктам России, СНГ и мира в авиационном формате (включающие направление и скорость ветра, видимость, явления погоды, количество и форму облачности, нижнюю и верхнюю границу облачности).

Рекомендуем: Мы предлагаем Вам cкачать программу исправления ошибок.

Погода в Кандалакше - сегодня

Время (UTC), дата Ветер
(°,м/с) 
Видим.   Явления Облачность Т
(°С)
Тd
(°С)
f(%) Тe
(°С)
Pmin
(гПа)
dP
(гПа)
Po
(мм)
O2
(г/м3)
Тmin Tmax R s Состояние
почвы
00 18.08.17 020 (С) 2-2  10 км    1/0 средняя 
[Ac trans]
+6.5 +6.5 100 +6  1018.2  0.3  761  299           
03 18.08.17 020 (С) 2-3  10 км    8/0 верхняя 
[Cs]
+6.2 +6.2 100 +6  1019.2  762  299  +5.7         
06 18.08.17 240 (ЮЗ) 1-2  20000 м    1/0 верхняя 
[Ci fib]
+15.7 +11.1 74 +19  1019  762  288  +5.7        влажная 
09 18.08.17 180 (Ю) 2-2  20000 м    8/3 600 м средняя, верхняя 
[Cu med, cong|Ac lent|Cs]
+18.2 +10.1 59 +20  1018.7  -0.3  762  286           
12 18.08.17 170 (Ю) 2-4  20000 м    9/3 600 м средняя, верхняя 
[Cu hum|Ac lent|Cs]
+19.3 +11.6 61 +23  1017.8  -1  761  284           
15 18.08.17 160 (Ю) 2-4  20000 м    9/1 600 м средняя, верхняя 
[Sc diur, vesp|Ac lent|Ci]
+19.4 +8.6 50 +20  1016.6  -1.1  760  285           
18 18.08.17 160 (Ю) 1-1  20000 м    4/0 средняя, верхняя 
[Ac lent|Cs]
+13.8 +8.8 72 +15  1016  -0.7  760  290    +19.8       
21 18.08.17 010 (С) 2-3  10 км    4/0 средняя, верхняя 
[Ac lent|Cs]
+8.6 +7.7 94 +9  1015.3  -0.8  759  295           
00 19.08.17 010 (С) 2-2  10 км    9/6 600 м средняя 
[Sc|Ac lent]
+10 +8.5 90 +10  1013.9  -1.3  758  293           
03 19.08.17 360 (С) 1-2  10 км    10/3 600 м средняя, верхняя 
[Sc|Ac As|Cs]
+10.3 +9.2 93 +11  1012.8  -1.1  757  292  +8.6         
06 19.08.17 010 (С) 1-2  10 км  слаб. ливневой дождь  10/8 300 м кучево-дожд., средняя 
[Cb cap|Ac As]
+11.4 +11.3 99 +16  1011.2  -1.6  756  290  +8.6      влажная 
09 19.08.17 190 (Ю) 1-2  2000 м  слаб. ливневой дождь  10/10 200 м кучево-дожд. 
[Cb cap]
+12.3 +12.2 99 +18  1010.5  -0.7  756  289           
12 19.08.17 160 (Ю) 2-5  4000 м  дымка{ливн. осадки, морось}  10/10 200 м 
[St]
+14.6 +14.6 100 +23  1010.1  -0.3  755  286           
15 19.08.17 190 (Ю) 1-3  10 км    6/3 600 м кучево-дожд., средняя, верхняя 
[Cb cap|Ac trans|Ci sp]
+16.6 +15.3 92 +27  1009.7  -0.3  755  284         
18 19.08.17 200 (Ю) 1-2  10 км    9/5 600 м средняя, верхняя 
[Sc|Ac As|Cs]
+14.2 +14.1 99 +22  1009.5  -0.2  755  286    +16.7     
21 19.08.17 010 (С) 1-1  10 км    9/6 600 м средняя, верхняя 
[Sc|Ac As|Ci sp]
+13.8 +13.7 99 +21  1008.1  -1.4  754  286           
00 20.08.17 020 (С) 1-2  2000 м  слаб. ливневой дождь  10/10 200 м кучево-дожд. 
[Cb cap]
+13.9 +13.9 100 +22  1005.9  -2.3  752  286           
03 20.08.17 070 (В) 1-2  2000 м  слаб. ливневой дождь  10/10 300 м кучево-дожд. 
[Cb cap]
+15.3 +15.2 99 +26  1002.5  -3.3  750  283  +13.6       
06 20.08.17 160 (Ю) 2-4  10 км  осадки на расстоянии{ливн. осадки}  10/10 300 м кучево-дожд. 
[Cb cap]
+16.6 +16.6 100 +29  1002.1  -0.4  749  281  +13.6      влажная 
09 20.08.17 230 (ЮЗ) 3-6{10}  20000 м    8/6 600 м кучево-дожд., верхняя 
[Cb cap|Cs]
+18.1 +13.6 75 +25  1004.2  2.1  751  281           
12 20.08.17 210 (ЮЗ) 3-6{10}  20000 м    6/5 600 м верхняя 
[Cu Sc|Cs]
+20.6 +10.6 53 +23  1004.9  0.7  752  280           
15 20.08.17 200 (Ю) 1-3{11}  20000 м    9/9 600 м кучево-дожд. 
[Cb cap]
+19.1 +10.9 59 +23  1005.6  0.7  752  281      0.1     
18 20.08.17 190 (Ю) 3-5  20000 м    9/8 600 м средняя 
[Sc diur, vesp|Ac lent]
+16.9 +11 68 +19  1005.7  0.1  752  283    +21       
21 20.08.17 200 (Ю) 2-4  10 км    9/5 600 м средняя 
[Sc|Ac As]
+16 +10.5 70 +19  1005.8  0.1  752  284           
00 21.08.17 180 (Ю) 2-4  10 км    3/3 600 м средняя 
[Sc|Ac trans]
+13.9 +11 83 +16  1006.5  0.7  753  287           
Время (UTC), дата Ветер
(°,м/с) 
Видим.   Явления Облачность Т
(°С)
Тd
(°С)
f(%) Тe
(°С)
Pmin
(гПа)
dP
(гПа)
Po
(мм)
O2
(г/м3)
Тmin Tmax R s Состояние
почвы

Для получения пояснительной информации подведите курсор к названию столбца.

ПОГОДА в Кандалакше - архив

Всё, что Вы хотите узнать о погоде в Кандалакше - удобно и подробно!

Выберите нужную дату (начиная с 1 января 2015* года) и нажмите кнопку "Найти".
Будут отображены архивные сводки погоды по пункту Кандалакша, начиная с указанной даты.


Отображать данные в формате CSV (для использования в таблицах Excel)


Внимание! Наш архив погоды предназначен исключительно для личного некоммерческого использования в познавательных целях. Если Вам необходимы официальные справки о состоянии погоды (для производственных, юридических, коммерческих и т.п. целей), обращайтесь в органы Росгидромета.

*Примечание: данная дата относится к архиву по метеостанциям СССР (Россия, СНГ, Балтия).
Архив по метеостанциям Зарубежной Европы и Азии (кроме Китая) хранится 10 дней, по другим регионам земного шара (Китай, Африка, Америка, Австралия, Океания) - 1 день.

Кандалакша - район местоположения метеостанции


Название, широта, долгота, высота метеостанции:
Кандалакша 67.2°ш. 32.3°д. 25 м над ур. моря [Российская Федерация]

Дополнительная информация

В oтличие oт бoльшинства пoгoдных сайтoв мы публикуем пoдрoбную метеoинфoрмацию в детальнoм прoфессиoнальнoм фoрмате.

Характеристики температуры и влажнoсти вoздуха измеряются на высoте 2 м в тени вдали oт зданий и деревьев.
Скoрoсть ветра измеряется на высoте 10 м (на урoвне рoста челoвека скoрoсть ветра ниже в 1.5-2 раза). Если метеoстанция нахoдится в гoрoде или в лесу, тo скoрoсть ветра занижена на 2-4 м/с пo сравнению с oткрытым местoм. Скoрoсть ветра над акватoриями крупных рек и oзёр, а также на вершинах хoлмoв на 2-5 м/с выше, чем в oбычных услoвиях.
Атмoсфернoе давление в разных тoчках местнoсти мoжет значительнo oтличаться oт давления на метеoстанции, в зависимoсти oт услoвий рельефа (при пoдъёме на 10 м давление пoнижается примернo на 1 мм рт.ст.).